Terminal Aerodrome Forecast
Issued by NWS Cleveland, OH

Home | Current Version | Previous Version | Graphics & Text | Print | Product List | Glossary On
Versions: 1 2 3 4 5 6 7 8 9 10 11 12 13 14
696
FTUS41 KCLE 241138
TAFTOL
TAF
KTOL 241138Z 2412/2512 32007KT P6SM SCT015
      TEMPO 2412/2414 BKN015
     FM241400 31009KT P6SM BKN018
     FM241800 33011KT P6SM BKN035
     FM250100 01005KT P6SM SCT035=

USA.gov is the U.S. government's official web portal to all federal, state and local government web resources and services.